Terug naar catalogus

STARLINK-37454

ActiefCommunicatieVLEO
NORAD 69375·PAYLOAD·🇺🇸 United States

Gelanceerd Jun 4, 2026 vanaf Cape Canaveral Space Force Station

Loading…

Volgende Passages (komende 24 uur)

TLE

VersSource: CelesTrak SupGP

Epoch: Sep 14, 2026, 21:36 UTC

1 69375C 26123Y   26257.90048611 -.00051136  00000+0 -15102-2 0  2570
2 69375  53.1590 168.2410 0001249  95.0732 327.0862 15.34428041    10

Volg STARLINK-37454 in realtime met AllMySat

Download on the App Store